weather.gov     
National Weather Service

Terminal Aerodrome Forecast
NWS Homepage
This page is being discontinued on March 12, 2014.
The same data is available at this site. Please update your bookmarks.
Thank you, and we apologize for the inconvenience.
Please send an email to SR-SRH.Webmaster@noaa.gov with any concerns.


Current Version
Previous Version:    01  02  03  04  05  06  07  08  09  10  11  12  13  14  15  16  17  18  19  20  21  22  23  24  25  26  27  28  29  30  
   31  32  33  34  35  36  37  38  39  40  41  42  43  44  45  46  47  48  49  50  51  52  53  54  55  56  57  58  59  60  
[Printable]
542
FTUS45 KSLC 222331
TAFSLC
TAF
KSLC 222331Z 2300/2406 01015G23KT P6SM -SHRA VCTS BKN070CB BKN080
      TEMPO 2300/2301 6SM -TSRA BKN060CB
     FM230400 34010KT P6SM -SHRA BKN060
     FM230600 15006KT P6SM -SHRA BKN050 BKN080
     FM231800 34010KT P6SM SCT040 BKN050=




542
FTUS45 KSLC 222331
TAFSLC
TAF
KSLC 222331Z 2300/2406 01015G23KT P6SM -SHRA VCTS BKN070CB BKN080
      TEMPO 2300/2301 6SM -TSRA BKN060CB
     FM230400 34010KT P6SM -SHRA BKN060
     FM230600 15006KT P6SM -SHRA BKN050 BKN080
     FM231800 34010KT P6SM SCT040 BKN050=


U.S. Dept. of Commerce
NOAA National Weather Service
1325 East West Highway
Silver Spring, MD 20910
E-mail: w-nws.webmaster@noaa.gov
Page last modified: May 16, 2007
NATIONAL WEATHER SERVICE: for Safety, for Work, for Fun - FOR LIFE